This demonstration page uses our WeatherBlox Daily Observations layout. Learn more.

Left ArrowRight Arrow

34.02893, -84.19858

Hourly Observations for February 26, 2020

Temp ( °F °C ) Dew Point ( °F °C ) Humidity (%) Winds ( mph kmh ) Pressure ( in mb ) Visibility ( mi km ) Precip ( " mm )
12:53 am 00:53 Clear 49 9.4 46 7.8 90 90 Calm 29.88 1012 10 16 0.00 0.00
1:53 am 01:53 Clear 48 8.9 46 7.8 93 93 S 3 6 29.88 1012 10 16 0.00 0.00
2:53 am 02:53 Clear 47 8.3 45 7.2 93 93 Calm 29.86 1011 10 16 0.00 0.00
3:53 am 03:53 Clear 45 7.2 44 6.7 97 97 Calm 29.86 1011 10 16 0.00 0.00
4:53 am 04:53 Clear 46 7.8 44 6.7 93 93 WNW 6 9 29.87 1011 10 16 0.00 0.00
5:53 am 05:53 Clear 45 7.2 43 6.1 93 93 W 5 7 29.88 1012 10 16 0.00 0.00
6:53 am 06:53 Clear 44 6.7 42 5.6 93 93 WNW 3 6 29.87 1012 10 16 0.00 0.00
7:53 am 07:53 Sunny 45 7.2 44 6.7 97 97 undefined N/A 29.88 1012 8 13 0.00 0.00
8:53 am 08:53 Sunny 49 9.4 45 7.2 86 86 NNW 3 6 29.89 1012 10 16 0.00 0.00
9:53 am 09:53 Sunny 52 11.1 44 6.7 75 75 W 3 6 29.90 1013 10 16 0.00 0.00
10:53 am 10:53 Mostly Cloudy 54 12.2 42 5.6 64 64 WNW 17 28 29.92 1013 10 16 0.00 0.00
11:23 am 11:23 Cloudy 52 11.1 43 6.1 72 72 WNW 10 17 29.94 1014 10 16 0.00 0.00
11:30 am 11:30 Mostly Cloudy 52 11.1 43 6.1 72 72 WNW 10 17 29.93 1013 10 16 0.00 0.00
11:53 am 11:53 Mostly Cloudy 52 11.1 43 6.1 72 72 W 16 26 29.95 1014 10 16 0.00 0.00
12:53 pm 12:53 Partly Cloudy 53 11.7 42 5.6 66 66 W 10 17 29.91 1013 10 16 0.00 0.00
1:53 pm 13:53 Cloudy 54 12.2 39 3.9 57 57 NW 15 24 29.88 1012 10 16 0.00 0.00
2:53 pm 14:53 Cloudy 51 10.6 38 3.3 61 61 W 14 22 29.88 1012 10 16 0.00 0.00
3:53 pm 15:53 Cloudy 48 8.9 38 3.3 68 68 WNW 13 20 29.90 1013 10 16 0.00 0.00
4:53 pm 16:53 Cloudy 46 7.8 41 5 83 83 W 14 22 29.92 1013 10 16 0.00 0.00
5:53 pm 17:53 Cloudy 47 8.3 37 2.8 69 69 W 15 24 29.94 1014 10 16 0.00 0.00
6:53 pm 18:53 Cloudy 45 7.2 35 1.7 68 68 WNW 17 28 29.98 1015 10 16 0.00 0.00
7:53 pm 19:53 Cloudy 41 5 32 0 70 70 WNW 13 20 30.02 1017 10 16 0.00 0.00
8:00 pm 20:00 Mostly Cloudy 40 4.4 32 0 73 73 NW 13 20 30.02 1017 10 16 0.00 0.00
8:53 pm 20:53 Clear 39 3.9 32 0 76 76 WNW 12 19 30.02 1017 10 16 0.00 0.00
9:53 pm 21:53 Mostly Cloudy 39 3.9 30 -1.1 70 70 NW 17 28 30.03 1017 10 16 0.00 0.00
10:53 pm 22:53 Clear 38 3.3 29 -1.7 70 70 NW 15 24 30.05 1018 10 16 0.00 0.00
11:53 pm 23:53 Partly Cloudy 37 2.8 27 -2.8 67 67 NW 10 17 30.07 1018 10 16 0.00 0.00

Powered by AerisWeather